Previsão horária em Jurkowice

Hoje, 18 Junho, Sexta-feira

Tempo Temperatura Precipitação Vento Pressão Humidade
00:00 +16°C° 0 mm 3 m/s 763 mmHg 77%
01:00 +16°C° 0 mm 3 m/s 763 mmHg 77%
02:00 +16°C° 0 mm 3 m/s 763 mmHg 78%
03:00 +16°C° 0 mm 3 m/s 763 mmHg 80%
04:00 +16°C° 0 mm 3 m/s 763 mmHg 82%
05:00 +17°C° 0 mm 3 m/s 763 mmHg 78%
06:00 +19°C° 0 mm 3 m/s 763 mmHg 74%
07:00 +21°C° 0 mm 4 m/s 763 mmHg 69%
08:00 +23°C° 0 mm 4 m/s 763 mmHg 65%
09:00 +25°C° 0 mm 4 m/s 763 mmHg 60%
10:00 +27°C° 0 mm 4 m/s 762 mmHg 56%
11:00 +28°C° 0 mm 4 m/s 762 mmHg 54%
12:00 +28°C° 0 mm 4 m/s 762 mmHg 51%
13:00 +29°C° 0 mm 4 m/s 762 mmHg 49%
14:00 +29°C° 0 mm 4 m/s 762 mmHg 52%
15:00 +29°C° 0 mm 4 m/s 762 mmHg 55%
16:00 +30°C° 0 mm 3 m/s 761 mmHg 58%
17:00 +28°C° 0 mm 3 m/s 761 mmHg 64%
18:00 +27°C° 0 mm 3 m/s 761 mmHg 70%
19:00 +26°C° 0 mm 3 m/s 761 mmHg 76%
20:00 +24°C° 0 mm 3 m/s 761 mmHg 78%
21:00 +22°C° 0 mm 3 m/s 761 mmHg 80%
22:00 +21°C° 0 mm 3 m/s 762 mmHg 82%
23:00 +20°C° 0 mm 3 m/s 762 mmHg 83%

Amanhã, 19 Junho, Sábado

Tempo Temperatura Precipitação Vento Pressão Humidade
00:00 +20°C° 0 mm 3 m/s 762 mmHg 84%
01:00 +19°C° 0 mm 3 m/s 762 mmHg 86%
02:00 +19°C° 0 mm 3 m/s 762 mmHg 87%
03:00 +19°C° 0 mm 3 m/s 761 mmHg 88%
04:00 +18°C° 0 mm 3 m/s 761 mmHg 90%
05:00 +20°C° 0 mm 3 m/s 761 mmHg 84%
06:00 +22°C° 0 mm 4 m/s 761 mmHg 79%
07:00 +25°C° 0 mm 4 m/s 761 mmHg 74%
08:00 +26°C° 0 mm 4 m/s 761 mmHg 69%
09:00 +27°C° 0 mm 4 m/s 761 mmHg 64%
10:00 +28°C° 0 mm 4 m/s 761 mmHg 60%
11:00 +29°C° 0 mm 4 m/s 761 mmHg 57%
12:00 +29°C° 0 mm 4 m/s 761 mmHg 54%
13:00 +30°C° 0 mm 5 m/s 760 mmHg 51%
14:00 +30°C° 0 mm 4 m/s 760 mmHg 52%
15:00 +30°C° 0 mm 3 m/s 760 mmHg 54%
16:00 +30°C° 0 mm 3 m/s 760 mmHg 55%
17:00 +29°C° 0 mm 3 m/s 760 mmHg 61%
18:00 +28°C° 0 mm 3 m/s 759 mmHg 67%
19:00 +27°C° 0 mm 2 m/s 759 mmHg 73%
20:00 +26°C° 0 mm 2 m/s 759 mmHg 76%
21:00 +24°C° 0 mm 3 m/s 760 mmHg 80%
22:00 +22°C° 0 mm 3 m/s 760 mmHg 83%
23:00 +22°C° 0 mm 3 m/s 760 mmHg 84%

Depois de amanhã, 20 Junho, Domingo

Tempo Temperatura Precipitação Vento Pressão Humidade
00:00 +22°C° 0 mm 3 m/s 759 mmHg 84%
01:00 +21°C° 0 mm 3 m/s 759 mmHg 85%
02:00 +21°C° 0 mm 3 m/s 759 mmHg 85%
03:00 +21°C° 0 mm 3 m/s 759 mmHg 85%
04:00 +21°C° 0 mm 3 m/s 759 mmHg 85%
05:00 +22°C° 0 mm 3 m/s 759 mmHg 83%
06:00 +24°C° 0 mm 3 m/s 759 mmHg 80%
07:00 +25°C° 0 mm 3 m/s 759 mmHg 77%
08:00 +26°C° 0 mm 4 m/s 759 mmHg 72%
09:00 +27°C° 0 mm 4 m/s 759 mmHg 67%
10:00 +29°C° 0 mm 4 m/s 759 mmHg 62%
11:00 +29°C° 0 mm 4 m/s 759 mmHg 58%
12:00 +30°C° 0 mm 4 m/s 758 mmHg 55%
13:00 +30°C° 0 mm 4 m/s 758 mmHg 52%
14:00 +30°C° 0 mm 4 m/s 758 mmHg 53%
15:00 +30°C° 0 mm 4 m/s 758 mmHg 54%
16:00 +30°C° 0 mm 3 m/s 757 mmHg 55%
17:00 +29°C° 0 mm 3 m/s 757 mmHg 62%
18:00 +27°C° 0 mm 3 m/s 757 mmHg 68%
19:00 +26°C° 0 mm 3 m/s 757 mmHg 75%
20:00 +25°C° 0 mm 3 m/s 757 mmHg 76%
21:00 +24°C° 0 mm 3 m/s 756 mmHg 77%
22:00 +22°C° 0 mm 3 m/s 756 mmHg 78%
23:00 +21°C° 0 mm 3 m/s 756 mmHg 81%

21 Junho, Segunda-feira

Tempo Temperatura Precipitação Vento Pressão Humidade
00:00 +21°C° 0 mm 3 m/s 756 mmHg 84%
01:00 +20°C° 0 mm 3 m/s 756 mmHg 87%
02:00 +20°C° 0 mm 3 m/s 756 mmHg 89%
03:00 +20°C° 0 mm 3 m/s 756 mmHg 91%
04:00 +20°C° 0 mm 3 m/s 755 mmHg 94%
05:00 +21°C° 0 mm 4 m/s 755 mmHg 87%
06:00 +23°C° 0 mm 4 m/s 755 mmHg 81%
07:00 +25°C° 0 mm 5 m/s 755 mmHg 74%
08:00 +26°C° 0 mm 6 m/s 755 mmHg 69%
09:00 +28°C° 0 mm 6 m/s 755 mmHg 63%
10:00 +29°C° 0 mm 6 m/s 755 mmHg 57%
11:00 +29°C° 0 mm 6 m/s 755 mmHg 55%
12:00 +30°C° 0 mm 6 m/s 754 mmHg 52%
13:00 +30°C° 0 mm 6 m/s 754 mmHg 50%
14:00 +30°C° 0 mm 5 m/s 754 mmHg 52%
15:00 +30°C° 0 mm 5 m/s 754 mmHg 54%
16:00 +30°C° 0 mm 5 m/s 754 mmHg 56%
17:00 +29°C° 0 mm 4 m/s 753 mmHg 62%
18:00 +27°C° 0 mm 3 m/s 753 mmHg 68%
19:00 +26°C° 0 mm 3 m/s 753 mmHg 73%
20:00 +25°C° 0.1 mm 3 m/s 753 mmHg 76%
21:00 +24°C° 0.1 mm 3 m/s 754 mmHg 78%
22:00 +23°C° 0.1 mm 2 m/s 754 mmHg 81%
23:00 +21°C° 0.1 mm 2 m/s 754 mmHg 84%

22 Junho, Terça-feira

Tempo Temperatura Precipitação Vento Pressão Humidade
00:00 +21°C° 0.1 mm 2 m/s 754 mmHg 87%
01:00 +21°C° 0.1 mm 1 m/s 754 mmHg 91%
02:00 +21°C° 0.3 mm 1 m/s 754 mmHg 92%
03:00 +20°C° 0.3 mm 2 m/s 754 mmHg 93%
04:00 +19°C° 0.3 mm 2 m/s 754 mmHg 95%
05:00 +20°C° 0.8 mm 2 m/s 754 mmHg 94%
06:00 +21°C° 0.8 mm 1 m/s 755 mmHg 93%
07:00 +22°C° 0.8 mm 1 m/s 755 mmHg 92%
08:00 +23°C° 0.1 mm 2 m/s 755 mmHg 86%
09:00 +24°C° 0.1 mm 2 m/s 756 mmHg 81%
10:00 +25°C° 0.1 mm 2 m/s 756 mmHg 75%
11:00 +25°C° 0 mm 2 m/s 756 mmHg 73%
12:00 +26°C° 0 mm 3 m/s 756 mmHg 72%
13:00 +26°C° 0 mm 3 m/s 757 mmHg 70%
14:00 +26°C° 0 mm 3 m/s 757 mmHg 69%
15:00 +25°C° 0 mm 4 m/s 757 mmHg 69%
16:00 +25°C° 0 mm 4 m/s 757 mmHg 69%
17:00 +23°C° 0 mm 4 m/s 758 mmHg 73%
18:00 +21°C° 0 mm 3 m/s 758 mmHg 77%
19:00 +20°C° 0 mm 3 m/s 758 mmHg 81%
20:00 +19°C° 0 mm 3 m/s 758 mmHg 84%
21:00 +17°C° 0 mm 3 m/s 759 mmHg 88%
22:00 +16°C° 0 mm 2 m/s 759 mmHg 91%
23:00 +16°C° 0 mm 2 m/s 759 mmHg 91%

23 Junho, Quarta-feira

Tempo Temperatura Precipitação Vento Pressão Humidade
00:00 +15°C° 0 mm 2 m/s 759 mmHg 91%
01:00 +15°C° 0 mm 2 m/s 759 mmHg 91%
02:00 +15°C° 0 mm 2 m/s 759 mmHg 91%
03:00 +15°C° 0 mm 2 m/s 759 mmHg 92%
04:00 +15°C° 0 mm 2 m/s 759 mmHg 92%
05:00 +17°C° 0 mm 2 m/s 760 mmHg 86%
06:00 +18°C° 0 mm 2 m/s 760 mmHg 80%
07:00 +20°C° 0 mm 3 m/s 760 mmHg 74%
08:00 +21°C° 0 mm 3 m/s 760 mmHg 69%
09:00 +24°C° 0 mm 3 m/s 760 mmHg 65%
10:00 +25°C° 0 mm 4 m/s 760 mmHg 61%
11:00 +25°C° 0 mm 4 m/s 760 mmHg 60%
12:00 +25°C° 0 mm 5 m/s 760 mmHg 59%
13:00 +25°C° 0 mm 5 m/s 761 mmHg 59%
14:00 +23°C° 0 mm 5 m/s 761 mmHg 62%
15:00 +22°C° 0 mm 5 m/s 761 mmHg 66%
16:00 +21°C° 0 mm 5 m/s 761 mmHg 70%
17:00 +20°C° 0 mm 5 m/s 761 mmHg 74%
18:00 +19°C° 0 mm 4 m/s 761 mmHg 77%
19:00 +18°C° 0 mm 4 m/s 761 mmHg 81%
20:00 +17°C° 0 mm 4 m/s 761 mmHg 85%
21:00 +15°C° 0 mm 4 m/s 761 mmHg 89%
22:00 +14°C° 0 mm 3 m/s 761 mmHg 93%
23:00 +14°C° 0 mm 3 m/s 761 mmHg 94%
Mostrar mais

Necessitamos do seu Consentimento

A Meteoprog e os seus Fornecedores de Serviços podem armazenar e aceder a dados pessoais como cookies, identificadores do dispositivo ou outras tecnologias semelhantes existentes no seu dispositivo e processar estes dados para personalizar conteúdos e anúncios, assim como funcionalidades nas redes sociais e análise de tráfego.

  • Armazenar e/ou aceder a informações no seu dispositivo

    Os cookies, identificadores do dispositivo ou outras informações podem ser armazenados ou acedidos no seu dispositivo, para os fins acima indicados.

  • Anúncios e conteúdos personalizados, medição de anúncios e conteúdos, dados sobre o público-alvo e desenvolvimento de produtos

    Os anúncios e os conteúdos podem ser personalizados com base num perfil. Podem ser adicionados dados adicionais para uma maior personalização dos anúncios e dos conteúdos. A eficácia dos anúncios e dos conteúdos pode ser medida. Podem ser obtidas informações sobre o público que visualizou os anúncios e os conteúdos. Estes dados podem ser usados para desenvolver ou melhorar sistemas, softwares ou a experiência do utilizador.

Ao clicar em "Eu concordo”, permitirá o uso de cookies, identificadores do dispositivo e web beacons mencionados ou outras tecnologias semelhantes. As configurações do navegador do seu dispositivo podem ser alteradas.

Para certos fins, podem ser invocados interesses legítimos ao invés de consentimento. Pode ler mais informação sobre este assunto na nossa Política de Privacidade e Cookies.